Simultaneous Nadir Overpasses (SNOs) Predictions

Prediction of SNOs between METOP-C and LANDSAT-8 Satellite Orbit:

Table of predicted SNOs for the next 14.0 days since TLE Epoch: 1/30/2021
Index Date (METOP-C) Time (METOP-C) Lat,Lon (METOP-C) SZA (METOP-C ) Date (LANDSAT-8) Time (LANDSAT-8) Lat,Lon (LANDSAT-8) SZA (LANDSAT-8 ) Distance(km) Time Diff (sec)
1 02/01/2021 04:31:30 -81.07, -29.18 80.36 02/01/2021 04:32:22 -81.07, -29.11 80.33 1.33 52
2 02/01/2021 05:22:09 81.08, 138.53 99.69 02/01/2021 05:21:48 81.08, 138.62 99.68 1.54 21
3 02/04/2021 00:05:52 -81.06, 37.17 81.19 02/04/2021 00:06:36 -81.07, 37.27 81.16 1.76 44
4 02/04/2021 00:56:30 81.09,-154.80 98.89 02/04/2021 00:56:01 81.10,-154.66 98.90 2.52 29
5 02/06/2021 19:40:15 -81.06, 103.50 82.06 02/06/2021 19:40:51 -81.06, 103.62 82.04 1.98 36
6 02/06/2021 20:30:53 81.09, -88.52 98.01 02/06/2021 20:30:16 81.09, -88.33 98.02 3.21 37
7 02/09/2021 15:14:37 -81.07, 170.19 82.92 02/09/2021 15:15:05 -81.08, 170.29 82.90 1.93 28
8 02/09/2021 16:05:14 81.11, -21.50 97.19 02/09/2021 16:04:30 81.10, -21.68 97.15 3.10 44
9 02/12/2021 10:48:59 -81.07,-123.53 83.86 02/12/2021 10:49:19 -81.07,-123.43 83.84 1.57 20



Historial Predications of SNOs between METOP-C and LANDSAT-8
